Погода в Скиатосе

Греция     39°09′43″N   23°29′29″E
темп.,
°C
ветер,
м/с
пор.,
м/с
влажн.,
%
обл.,
%
осадки,
мм/ч
давл.,
гПа
погр.,
м
13 июня, вс
вс1300:00+22зсз116865 0.0 1015144
03:00+21зюз22705 0.0 1014170
06:00+21сз22695 0.0 1014212
09:00+22сз34680 0.0 1015480
12:00+22ссз44690 0.2 1015285
15:00+23с125992 0.2 1014142
18:00+24ююз4457100 0.0 1012101
21:00+25сз7136216 0.0 1013306
14 июня, пн
пн1400:00+24ссз14186251 0.0 1014781
03:00+22ссз141758100 0.1 10141043
06:00+21ссз11105510 0.0 1014816
09:00+21ссз11105660 0.0 10151008
12:00+21ссз11115326 0.0 10151297
15:00+22с710530 0.0 10141791
18:00+21вюв43551 0.0 1013502
21:00+21юв435942 0.0 1013647
15 июня, вт
вт1500:00+21в336049 0.2 1014476
03:00+20ссв3358100 1.3 1014554
06:00+19сз91064100 3.4 10151261
09:00+19с10106435 4.6 10161144
12:00+20ссз109633 0.3 10171208
15:00+20с556198 0.3 1017858
18:00+20в11550 0.0 1016288
21:00+21ю335699 0.0 1016355
16 июня, ср
ср1600:00+21ююз4457100 0.0 1016296
03:00+21зюз455798 0.0 1015268
06:00+22сз58605 0.0 1015826
09:00+22ссз89605 0.0 1016673
12:00+22ссз89610 0.0 1017474
15:00+23с45580 0.0 1016292
18:00+23ююв32570 0.0 1016171
21:00+23ю44645 0.0 1016140
17 июня, чт
чт1700:00+23ююв5764100 0.0 1017179
03:00+24ю44615 0.0 101756
06:00+23ююз236038 0.0 101760
09:00+23ю22624 0.0 101898
12:00+23вюв22571 0.0 1019197
15:00+24вюв446123 0.0 1018297
18:00+24юв567126 0.0 1018275
21:00+23юв44733 0.0 101786